EFHKFMI Weather Reports


time (UTC)temp
C
wind
direction
speed
KPH
gust
KPH
rain 1hr
cm
rain 24hr
cm
rain mn
cm
humidity
%
barometer
mb
20260906060452 10 337 20.9 32.2 0.00 0.00 0.00 76 1005.1
20260906054123 10 334 17.7 29.0 0.00 0.00 0.00 80 1004.9
20260906052122 10 346 17.7 27.4 0.00 0.00 0.00 82 1004.8
20260906050453 10 350 17.7 24.1 0.00 0.00 0.00 82 1004.7
20260906044122 9 333 17.7 25.7 0.00 0.00 0.00 86 1004.6
20260906042122 9 335 16.1 20.9 0.00 0.00 0.00 87 1004.3
20260906040121 9 343 20.9 32.2 0.00 0.00 0.00 92 1003.9
20260906034453 9 317 19.3 25.7 0.00 0.00 0.00 96 1003.6
20260906032452 9 312 16.1 24.1 0.00 0.00 0.00 95 1003.5
20260906030453 9 312 16.1 24.1 0.00 0.00 0.00 94 1003.2
20260906022453 9 310 14.5 20.9 0.00 0.00 0.00 94 1002.8
20260906020452 9 314 16.1 20.9 0.00 0.00 0.00 94 1002.5
20260906014453 9 315 14.5 20.9 0.00 0.00 0.00 95 1002.3
20260906012452 9 316 16.1 22.5 0.00 0.00 0.00 94 1002.2
20260906010453 9 317 14.5 19.3 0.00 0.00 0.00 94 1002.0
20260906004454 9 315 12.9 19.3 0.00 0.00 0.00 95 1001.8
20260906000451 8 306 12.9 17.7 0.00 0.00 0.00 97 1001.4
20260905234452 8 309 14.5 19.3 0.00 0.00 0.00 95 1001.3
20260905232452 8 315 14.5 19.3 0.00 0.00 0.00 95 1001.0
20260905230452 8 323 14.5 19.3 0.00 0.00 0.00 96 1000.9
20260905224452 8 322 14.5 17.7 0.00 0.00 0.00 96 1000.7
20260905222451 9 332 12.9 16.1 0.00 0.00 0.00 97 1000.6
20260905214451 9 322 11.3 16.1 0.00 0.00 0.00 96 1000.3
20260905212452 9 314 9.7 11.3 0.00 0.00 0.00 95 1000.2
20260905204451 11 329 14.5 19.3 0.00 0.00 0.00 89 999.7
20260905202451 11 327 14.5 17.7 0.00 0.00 0.00 89 999.5
20260905200452 11 318 14.5 17.7 0.00 0.00 0.00 89 999.3
20260905194451 12 320 14.5 19.3 0.00 0.00 0.00 87 999.1
20260905192121 12 313 12.9 17.7 0.00 0.00 0.00 83 998.8
20260905190120 12 311 12.9 17.7 0.00 0.00 0.00 82 998.8
20260905184121 13 319 12.9 17.7 0.00 0.00 0.00 80 998.7
20260905182450 13 319 11.3 14.5 0.00 0.00 0.00 79 998.6
20260905180449 13 309 11.3 16.1 0.00 0.00 0.00 77 998.4
20260905174449 13 288 8.0 11.3 0.00 0.00 0.00 80 998.3
20260905172449 13 302 12.9 16.1 0.00 0.00 0.00 73 998.1
20260905170450 14 304 12.9 17.7 0.00 0.00 0.00 70 997.9
20260905164451 15 305 12.9 17.7 0.00 0.00 0.00 67 997.7
20260905162121 15 310 14.5 20.9 0.00 0.00 0.00 66 997.5
20260905154451 16 297 12.9 17.7 0.00 0.00 0.00 60 997.0
20260905152452 15 312 12.9 17.7 0.00 0.00 0.00 63 997.0
20260905150450 16 299 14.5 17.7 0.00 0.00 0.00 62 996.9
20260905142450 17 319 16.1 22.5 0.00 0.00 0.00 55 996.5
20260905140451 16 319 17.7 24.1 0.00 0.00 0.00 52 996.4
20260905132120 17 335 14.5 19.3 0.00 0.00 0.00 53 996.1
20260905124449 17 339 11.3 19.3 0.00 0.00 0.00 57 995.9
20260905122119 16 227 16.1 22.5 0.00 0.00 0.00 58 995.7
20260905120449 17 216 14.5 20.9 0.00 0.00 0.00 58 995.6
20260905114449 16 227 9.7 14.5 0.00 0.00 0.00 57 995.6
20260905110118 16 291 9.7 12.9 0.00 0.00 0.00 63 995.4
20260905104449 15 319 6.4 9.7 0.00 0.00 0.00 68 995.3
20260905102450 15 323 9.7 17.7 0.00 0.00 0.00 66 995.1
20260905100449 17 214 6.4 14.5 0.00 0.00 0.00 59 994.8
20260905094448 16 268 6.4 11.3 0.00 0.00 0.00 70 994.9
20260905092448 15 270 4.8 8.0 0.00 0.00 0.00 74 995.0
20260905090450 14 262 4.8 8.0 0.00 0.00 0.00 79 994.9
20260905082452 12 317 8.0 9.7 0.00 0.00 0.00 86 994.8
20260905072118 10 329 8.0 11.3 0.00 0.00 0.00 99 994.6
20260905064118 9 331 6.4 8.0 0.00 0.00 0.00 100 994.3